Tracking 30696 objects as of 16-Jun-2025
HD Live streaming from Space Station
objects crossing your sky now

COSMOS 970 DEB

Track COSMOS 970 DEB now!
10-day predictions


NORAD ID: 12869
Int'l Code: 1977-121AX
Perigee: 926.3 km
Apogee: 1,038.8 km
Inclination: 65.8 °
Period: 104.6 minutes
Semi major axis: 7353 km
RCS: 0.0101 m2 (small)
Launch date: December 21, 1977
Source: Commonwealth of Independent States (former USSR) (CIS)
Launch site: TYURATAM MISSILE AND SPACE COMPLEX (TTMTR)

Note: This is SATELLITE DEBRIS
Your satellite tracking list
Your tracking list is empty




NASA's NSSDC Master Catalog

Two Line Element Set (TLE):
1 12869U 77121AX  25166.61623505  .00000593  00000-0  67090-3 0  9994
2 12869  65.7889 122.6695 0076544 127.9118  50.4735 13.76760867368515
Source of the keplerian elements: AFSPC